Columbia Owens, SC

2:44 PM EST on February 18, 2018 (GMT -0500)
Columbia Owens Downtown

Weather History for KCUB - April, 2013

Change the Weather History Date:

Monday, April 1, 2013

  Actual Average Record
Temperature  
Mean Temperature 68 °F 61 °F  
Max Temperature 77 °F 73 °F 86 °F (2014)
Min Temperature 59 °F 49 °F 34 °F (2003)
Degree Days  
Heating Degree Days 0 5  
Month to date heating degree days 0 5  
Since 1 July heating degree days 2091 2208  
Cooling Degree Days 3 1  
Month to date cooling degree days 3 1  
Year to date cooling degree days 38 19  
Growing Degree Days 18 (Base 50)    
Moisture  
Dew Point 54 °F    
Average Humidity 74    
Maximum Humidity 100    
Minimum Humidity 23    
Precipitation  
Precipitation 0.83 in 0.12 in 1.35 in (2016)
Month to date precipitation 0.83 0.12  
Year to date precipitation 11.34 11.28  
Sea Level Pressure  
Sea Level Pressure 29.91 in    
Wind  
Wind Speed 6 mph (West)    
Max Wind Speed 15 mph    
Max Gust Speed 22 mph    
Visibility 8 miles    
Events Rain    
T = Trace of Precipitation, MM = Missing Value Source: NWS Daily Summary

Daily Weather History Graph

Daily Weather History Graph

Search for Another Location

Airport or City:

Trip Planner

Search our weather history database for the weather conditions in past years. The results will help you decide how hot, cold, wet, or windy it might be!

Date:

Astronomy

Apr. 01, 2013 Rise Set
Actual Time 7:11 AM EDT 7:44 PM EDT
Civil Twilight 6:45 AM EDT 8:10 PM EDT
Nautical Twilight 6:16 AM EDT 8:39 PM EDT
Astronomical Twilight 5:46 AM EDT 9:10 PM EDT
Moon 12:39 AM EDT (4/1) 11:08 AM EDT (4/1)
Length of Visible Light 13h 24m
Length of Day
12h 33m
Waning Gibbous, 67% of the Moon is Illuminated
Apr 1
Waning Gibbous
Apr 3
Last Quarter
Apr 10
New
Apr 18
First Quarter
Apr 25
Full

Hourly Weather History & Observations

Time (EDT) Temp. Dew Point Humidity Pressure Visibility Wind Dir Wind Speed Gust Speed Precip Events Conditions
12:53 AM 64.0 °F 60.1 °F 87% 29.88 in 10.0 mi SW 5.8 mph - N/A   Overcast
1:53 AM 63.0 °F 60.1 °F 90% 29.89 in 7.0 mi SSW 5.8 mph - 0.01 in Rain Light Rain
2:05 AM 62.6 °F 60.8 °F 94% 29.90 in 10.0 mi SW 6.9 mph - 0.00 in   Overcast
2:20 AM 62.6 °F 60.8 °F 94% 29.90 in 1.5 mi WSW 3.5 mph - 0.14 in Rain Heavy Rain
2:22 AM 62.6 °F 60.8 °F 94% 29.90 in 0.8 mi Calm Calm - 0.20 in Rain Heavy Rain
2:33 AM 62.6 °F 60.8 °F 94% 29.90 in 1.2 mi South 4.6 mph - 0.33 in Rain Heavy Rain
2:43 AM 62.6 °F 60.8 °F 94% 29.91 in 3.0 mi WSW 8.1 mph - 0.37 in Rain Rain
2:53 AM 62.1 °F 60.1 °F 93% 29.90 in 4.0 mi West 8.1 mph - 0.41 in Rain Rain
3:53 AM 61.0 °F 60.1 °F 97% 29.88 in 10.0 mi SSW 4.6 mph - 0.09 in Rain Light Rain
4:53 AM 62.1 °F 57.9 °F 86% 29.87 in 6.0 mi WNW 5.8 mph - 0.08 in Rain Rain
5:53 AM 60.1 °F 57.9 °F 93% 29.88 in 7.0 mi Calm Calm - 0.07 in Rain Light Rain
6:53 AM 60.1 °F 57.9 °F 93% 29.89 in 4.0 mi Calm Calm - 0.10 in Rain Rain
7:53 AM 60.1 °F 59.0 °F 96% 29.90 in 8.0 mi SSW 3.5 mph - 0.06 in   Mostly Cloudy
8:08 AM 60.8 °F 57.2 °F 88% 29.92 in 8.0 mi SW 4.6 mph - N/A   Mostly Cloudy
8:37 AM 60.8 °F 59.0 °F 94% 29.93 in 10.0 mi WSW 3.5 mph - N/A   Mostly Cloudy
8:53 AM 60.1 °F 59.0 °F 96% 29.93 in 10.0 mi Calm Calm - N/A   Overcast
9:36 AM 60.8 °F 59.0 °F 94% 29.93 in 10.0 mi West 6.9 mph - N/A   Overcast
9:47 AM 60.8 °F 59.0 °F 94% 29.94 in 5.0 mi West 8.1 mph - 0.01 in Rain Light Rain
9:53 AM 61.0 °F 59.0 °F 93% 29.94 in 9.0 mi West 6.9 mph - 0.01 in   Overcast
10:06 AM 62.6 °F 60.8 °F 94% 29.93 in 10.0 mi WSW 8.1 mph - N/A   Overcast
10:48 AM 62.6 °F 60.8 °F 94% 29.94 in 10.0 mi NW 9.2 mph - 0.00 in   Overcast
10:53 AM 63.0 °F 59.0 °F 87% 29.94 in 10.0 mi NW 10.4 mph - 0.00 in   Overcast
11:07 AM 62.6 °F 60.8 °F 94% 29.94 in 10.0 mi Variable 5.8 mph - N/A   Overcast
11:28 AM 64.4 °F 59.0 °F 83% 29.94 in 10.0 mi WNW 6.9 mph - N/A   Overcast
11:53 AM 66.0 °F 57.9 °F 75% 29.94 in 10.0 mi WNW 6.9 mph - N/A   Scattered Clouds
12:53 PM 69.1 °F 55.0 °F 61% 29.92 in 10.0 mi West 5.8 mph - N/A   Partly Cloudy
1:53 PM 72.0 °F 53.1 °F 51% 29.91 in 10.0 mi NW 8.1 mph - N/A   Mostly Cloudy
2:53 PM 75.0 °F 50.0 °F 41% 29.89 in 10.0 mi West 10.4 mph 20.7 mph N/A   Scattered Clouds
3:53 PM 75.0 °F 50.0 °F 41% 29.88 in 10.0 mi West 11.5 mph 17.3 mph N/A   Scattered Clouds
4:53 PM 75.9 °F 46.9 °F 36% 29.87 in 10.0 mi WNW 12.7 mph 19.6 mph N/A   Clear
5:53 PM 75.9 °F 44.1 °F 32% 29.86 in 10.0 mi WNW 6.9 mph - N/A   Partly Cloudy
6:53 PM 75.0 °F 36.0 °F 24% 29.88 in 10.0 mi West 12.7 mph 19.6 mph N/A   Clear
7:53 PM 72.0 °F 34.0 °F 25% 29.89 in 10.0 mi WNW 4.6 mph - N/A   Clear
8:53 PM 66.0 °F 37.9 °F 36% 29.91 in 10.0 mi NW 3.5 mph - N/A   Clear
9:53 PM 68.0 °F 39.0 °F 35% 29.94 in 10.0 mi WNW 6.9 mph - N/A   Clear
10:53 PM 66.0 °F 39.0 °F 37% 29.95 in 10.0 mi NW 5.8 mph - N/A   Clear
11:53 PM 64.9 °F 37.9 °F 37% 29.97 in 10.0 mi WNW 4.6 mph - N/A   Clear